Time,TemperatureF,DewpointF,PressureIn,WindDirection,WindDirectionDegrees,WindSpeedMPH,WindSpeedGustMPH,Humidity,HourlyPrecipIn,Conditions,Clouds,dailyrainin,SoftwareType,DateUTC
2013-08-19 00:09:00,65.3,65.0,30.35,SW,229,0.0,0.0,98,0.01,,,0.00,weatherlink.com 1.10,2013-08-19 04:09:00,
2013-08-19 00:24:00,65.1,65.0,30.35,SW,228,0.0,0.0,98,0.02,,,0.01,weatherlink.com 1.10,2013-08-19 04:24:00,
2013-08-19 00:39:00,65.1,65.0,30.35,SW,228,0.0,0.0,98,0.03,,,0.02,weatherlink.com 1.10,2013-08-19 04:39:00,
2013-08-19 00:54:00,65.1,65.0,30.34,SW,228,0.0,0.0,98,0.03,,,0.03,weatherlink.com 1.10,2013-08-19 04:54:00,
2013-08-19 01:09:00,65.0,65.0,30.34,SW,229,0.0,0.0,98,0.04,,,0.04,weatherlink.com 1.10,2013-08-19 05:09:00,
2013-08-19 01:24:00,64.6,64.0,30.34,SSE,153,0.0,1.0,98,0.04,,,0.05,weatherlink.com 1.10,2013-08-19 05:24:00,
2013-08-19 01:39:00,64.3,64.0,30.33,SSE,153,0.0,1.0,98,0.03,,,0.05,weatherlink.com 1.10,2013-08-19 05:39:00,
2013-08-19 01:54:00,64.2,64.0,30.33,SSE,153,0.0,0.0,98,0.03,,,0.06,weatherlink.com 1.10,2013-08-19 05:54:00,
2013-08-19 02:09:00,64.3,64.0,30.33,SSE,153,0.0,0.0,98,0.03,,,0.07,weatherlink.com 1.10,2013-08-19 06:09:00,
2013-08-19 02:24:00,64.3,64.0,30.33,SSE,153,0.0,0.0,98,0.03,,,0.08,weatherlink.com 1.10,2013-08-19 06:24:00,
2013-08-19 02:39:00,64.3,64.0,30.32,SSE,153,0.0,0.0,98,0.06,,,0.11,weatherlink.com 1.10,2013-08-19 06:39:00,
2013-08-19 02:54:00,64.4,64.0,30.31,SSE,153,0.0,1.0,98,0.19,,,0.25,weatherlink.com 1.10,2013-08-19 06:54:00,
2013-08-19 03:09:00,64.4,64.0,30.31,SSE,153,0.0,0.0,98,0.23,,,0.30,weatherlink.com 1.10,2013-08-19 07:09:00,
2013-08-19 03:24:00,64.4,64.0,30.31,SSE,152,0.0,0.0,98,0.26,,,0.34,weatherlink.com 1.10,2013-08-19 07:24:00,
2013-08-19 03:39:00,64.4,64.0,30.31,SSE,153,0.0,0.0,98,0.26,,,0.37,weatherlink.com 1.10,2013-08-19 07:39:00,
2013-08-19 03:54:00,64.3,64.0,30.30,SSE,153,0.0,0.0,98,0.17,,,0.42,weatherlink.com 1.10,2013-08-19 07:54:00,
2013-08-19 04:10:00,64.3,64.0,30.30,SSE,153,0.0,1.0,98,0.15,,,0.45,weatherlink.com 1.10,2013-08-19 08:10:00,
2013-08-19 04:25:00,64.1,64.0,30.30,ENE,77,0.0,1.0,98,0.15,,,0.49,weatherlink.com 1.10,2013-08-19 08:25:00,
2013-08-19 04:40:00,64.2,64.0,30.29,ENE,77,0.0,1.0,99,0.13,,,0.50,weatherlink.com 1.10,2013-08-19 08:40:00,
2013-08-19 04:55:00,64.1,64.0,30.29,South,184,0.0,1.0,99,0.09,,,0.51,weatherlink.com 1.10,2013-08-19 08:55:00,
2013-08-19 05:10:00,64.1,64.0,30.29,South,184,0.0,0.0,99,0.12,,,0.57,weatherlink.com 1.10,2013-08-19 09:10:00,
2013-08-19 05:25:00,64.0,64.0,30.29,South,185,0.0,0.0,98,0.10,,,0.59,weatherlink.com 1.10,2013-08-19 09:25:00,
2013-08-19 05:40:00,63.9,64.0,30.29,South,185,0.0,0.0,99,0.12,,,0.62,weatherlink.com 1.10,2013-08-19 09:40:00,
2013-08-19 05:55:00,63.8,64.0,30.29,South,184,0.0,0.0,99,0.17,,,0.68,weatherlink.com 1.10,2013-08-19 09:55:00,
2013-08-19 06:10:00,63.6,63.0,30.29,SSE,149,0.0,1.0,98,0.23,,,0.80,weatherlink.com 1.10,2013-08-19 10:10:00,
2013-08-19 06:25:00,63.6,63.0,30.29,SSE,148,0.0,1.0,99,0.34,,,0.94,weatherlink.com 1.10,2013-08-19 10:25:00,
2013-08-19 06:40:00,63.5,63.0,30.29,ENE,59,0.0,2.0,99,0.39,,,1.01,weatherlink.com 1.10,2013-08-19 10:40:00,
2013-08-19 06:55:00,63.5,63.0,30.29,ESE,115,0.0,1.0,99,0.42,,,1.10,weatherlink.com 1.10,2013-08-19 10:55:00,
2013-08-19 07:10:00,63.5,63.0,30.29,ESE,122,0.0,1.0,99,0.40,,,1.20,weatherlink.com 1.10,2013-08-19 11:10:00,
2013-08-19 07:25:00,63.4,63.0,30.28,SE,127,0.0,1.0,99,0.35,,,1.30,weatherlink.com 1.10,2013-08-19 11:25:00,
2013-08-19 07:40:00,63.5,63.0,30.28,SE,127,0.0,0.0,99,0.36,,,1.37,weatherlink.com 1.10,2013-08-19 11:40:00,
2013-08-19 07:55:00,63.5,63.0,30.29,SE,127,0.0,0.0,99,0.36,,,1.47,weatherlink.com 1.10,2013-08-19 11:55:00,
2013-08-19 08:10:00,63.6,63.0,30.29,SE,127,0.0,0.0,99,0.36,,,1.56,weatherlink.com 1.10,2013-08-19 12:10:00,
2013-08-19 08:25:00,63.8,64.0,30.30,SE,127,0.0,1.0,99,0.34,,,1.64,weatherlink.com 1.10,2013-08-19 12:25:00,
2013-08-19 08:40:00,64.1,64.0,30.30,SE,127,0.0,0.0,99,0.34,,,1.71,weatherlink.com 1.10,2013-08-19 12:40:00,
2013-08-19 08:55:00,64.2,64.0,30.29,SE,127,0.0,0.0,99,0.25,,,1.72,weatherlink.com 1.10,2013-08-19 12:55:00,
2013-08-19 09:10:00,64.5,64.0,30.28,ESE,102,0.0,1.0,99,0.15,,,1.72,weatherlink.com 1.10,2013-08-19 13:10:00,
2013-08-19 09:25:00,65.1,65.0,30.29,NW,316,0.0,2.0,99,0.08,,,1.72,weatherlink.com 1.10,2013-08-19 13:25:00,
2013-08-19 09:40:00,66.0,66.0,30.29,WNW,290,0.0,0.0,99,0.01,,,1.72,weatherlink.com 1.10,2013-08-19 13:40:00,
2013-08-19 09:55:00,66.3,66.0,30.29,WNW,290,0.0,0.0,97,0.00,,,1.72,weatherlink.com 1.10,2013-08-19 13:55:00,
2013-08-19 10:10:00,67.0,66.0,30.29,WNW,290,0.0,0.0,96,0.00,,,1.72,weatherlink.com 1.10,2013-08-19 14:10:00,
2013-08-19 10:25:00,67.0,65.0,30.30,ESE,102,0.0,0.0,93,0.00,,,1.72,weatherlink.com 1.10,2013-08-19 14:25:00,
2013-08-19 10:40:00,67.8,66.0,30.30,East,100,0.0,1.0,94,0.00,,,1.72,weatherlink.com 1.10,2013-08-19 14:40:00,
2013-08-19 10:55:00,68.5,66.0,30.31,WNW,295,0.0,1.0,91,0.00,,,1.72,weatherlink.com 1.10,2013-08-19 14:55:00,
2013-08-19 11:10:00,68.9,67.0,30.31,WNW,291,0.0,1.0,92,0.00,,,1.72,weatherlink.com 1.10,2013-08-19 15:10:00,
2013-08-19 11:25:00,69.1,66.0,30.31,West,274,1.0,2.0,91,0.00,,,1.72,weatherlink.com 1.10,2013-08-19 15:25:00,
2013-08-19 11:40:00,70.3,67.0,30.31,East,81,0.0,2.0,90,0.00,,,1.72,weatherlink.com 1.10,2013-08-19 15:40:00,
2013-08-19 11:55:00,69.9,66.0,30.32,WNW,300,0.0,2.0,87,0.00,,,1.72,weatherlink.com 1.10,2013-08-19 15:55:00,
2013-08-19 12:10:00,69.7,66.0,30.31,WNW,299,0.0,2.0,88,0.00,,,1.72,weatherlink.com 1.10,2013-08-19 16:10:00,
2013-08-19 12:25:00,69.2,67.0,30.31,WNW,285,0.0,2.0,91,0.00,,,1.72,weatherlink.com 1.10,2013-08-19 16:25:00,
2013-08-19 12:40:00,69.8,67.0,30.31,West,276,0.0,2.0,91,0.00,,,1.72,weatherlink.com 1.10,2013-08-19 16:40:00,
2013-08-19 12:55:00,70.9,68.0,30.30,ESE,118,1.0,2.0,89,0.00,,,1.72,weatherlink.com 1.10,2013-08-19 16:55:00,
2013-08-19 13:10:00,71.3,68.0,30.30,WSW,238,0.0,1.0,90,0.00,,,1.72,weatherlink.com 1.10,2013-08-19 17:10:00,
2013-08-19 13:25:00,71.7,68.0,30.30,NW,305,0.0,1.0,87,0.00,,,1.72,weatherlink.com 1.10,2013-08-19 17:25:00,
2013-08-19 13:40:00,72.2,69.0,30.29,SW,214,1.0,2.0,88,0.00,,,1.72,weatherlink.com 1.10,2013-08-19 17:40:00,
2013-08-19 13:55:00,73.0,68.0,30.29,ESE,118,0.0,2.0,85,0.00,,,1.72,weatherlink.com 1.10,2013-08-19 17:55:00,
2013-08-19 14:10:00,73.7,68.0,30.29,ESE,115,2.0,2.0,81,0.00,,,1.72,weatherlink.com 1.10,2013-08-19 18:10:00,
2013-08-19 14:25:00,74.9,68.0,30.28,West,280,0.0,2.0,79,0.00,,,1.72,weatherlink.com 1.10,2013-08-19 18:25:00,
2013-08-19 14:40:00,75.6,70.0,30.28,NNE,12,0.0,2.0,82,0.00,,,1.72,weatherlink.com 1.10,2013-08-19 18:40:00,
2013-08-19 14:56:00,75.4,68.0,30.27,NNW,342,0.0,2.0,78,0.00,,,1.72,weatherlink.com 1.10,2013-08-19 18:56:00,
2013-08-19 15:11:00,74.6,68.0,30.26,WNW,302,0.0,3.0,81,0.00,,,1.72,weatherlink.com 1.10,2013-08-19 19:11:00,
2013-08-19 15:26:00,73.4,68.0,30.26,WNW,297,0.0,2.0,83,0.00,,,1.72,weatherlink.com 1.10,2013-08-19 19:26:00,
2013-08-19 15:41:00,73.7,68.0,30.26,South,172,0.0,1.0,83,0.00,,,1.72,weatherlink.com 1.10,2013-08-19 19:41:00,
2013-08-19 15:56:00,74.6,68.0,30.25,WNW,292,1.0,4.0,81,0.00,,,1.72,weatherlink.com 1.10,2013-08-19 19:56:00,
2013-08-19 16:11:00,74.5,68.0,30.25,West,281,0.0,2.0,81,0.00,,,1.72,weatherlink.com 1.10,2013-08-19 20:11:00,
2013-08-19 16:26:00,75.5,69.0,30.24,WSW,240,0.0,2.0,81,0.00,,,1.72,weatherlink.com 1.10,2013-08-19 20:26:00,
2013-08-19 16:41:00,74.9,69.0,30.24,WSW,242,0.0,3.0,82,0.00,,,1.72,weatherlink.com 1.10,2013-08-19 20:41:00,
2013-08-19 16:56:00,74.3,69.0,30.25,WNW,289,1.0,3.0,82,0.00,,,1.72,weatherlink.com 1.10,2013-08-19 20:56:00,
2013-08-19 17:11:00,72.3,69.0,30.24,West,260,0.0,2.0,89,0.00,,,1.72,weatherlink.com 1.10,2013-08-19 21:11:00,
2013-08-19 17:26:00,71.9,68.0,30.24,West,267,1.0,1.0,88,0.00,,,1.72,weatherlink.com 1.10,2013-08-19 21:26:00,
2013-08-19 17:41:00,72.0,68.0,30.24,West,271,0.0,1.0,88,0.00,,,1.72,weatherlink.com 1.10,2013-08-19 21:41:00,
2013-08-19 17:56:00,71.9,68.0,30.24,West,264,0.0,1.0,87,0.00,,,1.72,weatherlink.com 1.10,2013-08-19 21:56:00,
2013-08-19 18:11:00,71.8,68.0,30.24,West,266,0.0,1.0,88,0.00,,,1.72,weatherlink.com 1.10,2013-08-19 22:11:00,
2013-08-19 18:26:00,71.4,68.0,30.24,WSW,241,2.0,2.0,89,0.00,,,1.72,weatherlink.com 1.10,2013-08-19 22:26:00,
2013-08-19 18:41:00,70.5,68.0,30.25,West,262,0.0,1.0,92,0.01,,,1.73,weatherlink.com 1.10,2013-08-19 22:41:00,
2013-08-19 18:56:00,69.3,68.0,30.25,SW,229,0.0,0.0,94,0.04,,,1.76,weatherlink.com 1.10,2013-08-19 22:56:00,
2013-08-19 19:11:00,68.9,68.0,30.25,SW,229,0.0,0.0,96,0.06,,,1.78,weatherlink.com 1.10,2013-08-19 23:11:00,
2013-08-19 19:26:00,68.7,68.0,30.26,SW,229,0.0,0.0,97,0.06,,,1.78,weatherlink.com 1.10,2013-08-19 23:26:00,
2013-08-19 19:41:00,68.4,68.0,30.26,SSE,156,0.0,1.0,97,0.09,,,1.82,weatherlink.com 1.10,2013-08-19 23:41:00,
2013-08-19 19:56:00,67.8,67.0,30.27,East,82,0.0,1.0,97,0.10,,,1.86,weatherlink.com 1.10,2013-08-19 23:56:00,
2013-08-19 20:11:00,67.6,67.0,30.27,East,82,0.0,1.0,97,0.11,,,1.89,weatherlink.com 1.10,2013-08-20 00:11:00,
2013-08-19 20:26:00,67.1,66.0,30.27,East,82,0.0,0.0,97,0.13,,,1.91,weatherlink.com 1.10,2013-08-20 00:26:00,
2013-08-19 20:41:00,66.4,66.0,30.27,WNW,292,0.0,1.0,97,0.10,,,1.92,weatherlink.com 1.10,2013-08-20 00:41:00,
2013-08-19 20:56:00,66.2,65.0,30.28,WNW,293,0.0,0.0,97,0.07,,,1.93,weatherlink.com 1.10,2013-08-20 00:56:00,
2013-08-19 21:11:00,65.9,65.0,30.28,WNW,293,0.0,1.0,97,0.06,,,1.95,weatherlink.com 1.10,2013-08-20 01:11:00,
2013-08-19 21:26:00,65.8,65.0,30.28,WNW,293,0.0,0.0,98,0.04,,,1.95,weatherlink.com 1.10,2013-08-20 01:26:00,
2013-08-19 21:41:00,65.7,65.0,30.28,WNW,293,0.0,0.0,98,0.03,,,1.95,weatherlink.com 1.10,2013-08-20 01:41:00,
2013-08-19 21:56:00,65.7,65.0,30.28,West,262,0.0,1.0,98,0.01,,,1.95,weatherlink.com 1.10,2013-08-20 01:56:00,
2013-08-19 22:11:00,65.8,65.0,30.29,West,262,0.0,0.0,98,0.00,,,1.95,weatherlink.com 1.10,2013-08-20 02:11:00,
2013-08-19 22:26:00,65.9,65.0,30.29,West,262,0.0,0.0,98,0.00,,,1.95,weatherlink.com 1.10,2013-08-20 02:26:00,
2013-08-19 22:41:00,66.0,66.0,30.29,West,263,0.0,0.0,98,0.00,,,1.95,weatherlink.com 1.10,2013-08-20 02:41:00,
2013-08-19 22:56:00,65.8,65.0,30.29,West,263,0.0,0.0,98,0.00,,,1.95,weatherlink.com 1.10,2013-08-20 02:56:00,
2013-08-19 23:11:00,65.6,65.0,30.29,West,263,0.0,0.0,98,0.00,,,1.95,weatherlink.com 1.10,2013-08-20 03:11:00,
2013-08-19 23:26:00,65.5,65.0,30.29,West,263,0.0,0.0,98,0.00,,,1.95,weatherlink.com 1.10,2013-08-20 03:26:00,
2013-08-19 23:41:00,65.6,65.0,30.30,WSW,252,0.0,1.0,99,0.00,,,1.95,weatherlink.com 1.10,2013-08-20 03:41:00,
2013-08-19 23:56:00,65.7,65.0,30.30,WSW,252,1.0,1.0,98,0.00,,,1.95,weatherlink.com 1.10,2013-08-20 03:56:00,